Weather History for Harrison, AR

Change the Weather History Date:

Sunday, September 8, 2013

  Actual Average Record
Temperature  
Mean Temperature 80 °F 72 °F  
Max Temperature 95 °F 84 °F 102 °F (1939)
Min Temperature 65 °F 61 °F 38 °F (1956)
Degree Days  
Heating Degree Days 0 0  
Month to date heating degree days 0 0  
Since 1 July heating degree days 1 1  
Cooling Degree Days 15 7  
Month to date cooling degree days 75 68  
Year to date cooling degree days 1219 1279  
Growing Degree Days 30 (Base 50)    
Moisture  
Dew Point 66 °F    
Average Humidity 66    
Maximum Humidity 93    
Minimum Humidity 39    
Precipitation  
Precipitation 0.00 in 0.13 in 5.00 in (1930)
Month to date precipitation 0.01 1.02  
Year to date precipitation 32.83 29.98  
Snow  
Snow 0.00 in 0.00 in - ()
Month to date snowfall 0.0 0.0  
Since 1 July snowfall 0.0 0.0  
Since 1 September snowfall 0.0 0.0  
Snow Depth 0.00 in    
Sea Level Pressure  
Sea Level Pressure 29.95 in    
Wind  
Wind Speed 2 mph (SW)    
Max Wind Speed 12 mph    
Max Gust Speed 17 mph    
Visibility 9 miles    
Events      
T = Trace of Precipitation, MM = Missing Value Source: NWS Daily Summary

Daily Weather History Graph

Daily Weather History Graph

Search for Another Location

Airport:

Trip Planner

Search our weather history database for the weather conditions in past years. The results will help you decide how hot, cold, wet, or windy it might be!

Date:

Astronomy

Sep. 08, 2013 Rise Set
Actual Time 6:49 AM CDT 7:29 PM CDT
Civil Twilight 6:23 AM CDT 7:55 PM CDT
Nautical Twilight 5:53 AM CDT 8:26 PM CDT
Astronomical Twilight 5:21 AM CDT 8:57 PM CDT
Moon 10:00 AM CDT (9/8) 9:13 PM CDT (9/8)
Length of Visible Light 13h 32m
Length of Day
12h 40m
Waxing Crescent, 11% of the Moon is Illuminated
Sep 8
Waxing Crescent
Sep 12
First Quarter
Sep 19
Full
Sep 26
Last Quarter
Oct 4
New

Hourly Weather History & Observations

Time (CDT) Temp. Heat Index Dew Point Humidity Pressure Visibility Wind Dir Wind Speed Gust Speed Precip Events Conditions
12:53 AM 69.1 °F - 64.0 °F 84% 29.97 in 9.0 mi Calm Calm - N/A   Clear
1:53 AM 66.9 °F - 64.0 °F 90% 29.95 in 9.0 mi Calm Calm - N/A   Clear
2:53 AM 66.9 °F - 64.0 °F 90% 29.94 in 8.0 mi ESE 3.5 mph - N/A   Clear
3:53 AM 66.0 °F - 64.0 °F 93% 29.95 in 8.0 mi East 3.5 mph - N/A   Clear
4:53 AM 66.9 °F - 63.0 °F 87% 29.95 in 9.0 mi Calm Calm - N/A   Clear
5:53 AM 71.1 °F - 63.0 °F 75% 29.95 in 10.0 mi Calm Calm - N/A   Clear
6:53 AM 66.9 °F - 63.0 °F 87% 29.96 in 8.0 mi Calm Calm - N/A   Clear
7:53 AM 71.1 °F - 64.9 °F 81% 29.96 in 8.0 mi Calm Calm - N/A   Clear
8:53 AM 82.0 °F 83.4 °F 64.0 °F 54% 29.97 in 10.0 mi SW 3.5 mph - N/A   Clear
9:53 AM 86.0 °F 87.3 °F 64.0 °F 48% 29.97 in 10.0 mi WSW 5.8 mph - N/A   Clear
10:53 AM 88.0 °F 89.6 °F 64.9 °F 46% 29.98 in 10.0 mi WSW 8.1 mph - N/A   Clear
11:53 AM 90.0 °F 91.7 °F 64.9 °F 43% 29.98 in 10.0 mi West 8.1 mph - N/A   Clear
12:53 PM 91.9 °F 94.1 °F 64.9 °F 41% 29.97 in 10.0 mi WNW 6.9 mph - N/A   Clear
1:53 PM 93.9 °F 95.6 °F 64.0 °F 37% 29.95 in 10.0 mi Variable 4.6 mph - N/A   Clear
2:53 PM 93.0 °F 94.6 °F 64.0 °F 38% 29.93 in 10.0 mi Calm Calm - N/A   Partly Cloudy
3:53 PM 93.0 °F 95.0 °F 64.9 °F 39% 29.91 in 10.0 mi Calm Calm - N/A   Clear
4:53 PM 89.1 °F 94.1 °F 70.0 °F 53% 29.91 in 10.0 mi Calm Calm - N/A   Scattered Clouds
5:53 PM 87.1 °F 92.8 °F 71.1 °F 59% 29.91 in 10.0 mi Calm Calm - N/A   Clear
6:53 PM 84.9 °F 88.8 °F 69.1 °F 59% 29.91 in 10.0 mi East 4.6 mph - N/A   Clear
7:53 PM 80.1 °F 82.9 °F 69.1 °F 69% 29.92 in 10.0 mi Calm Calm - N/A   Clear
8:53 PM 77.0 °F - 70.0 °F 79% 29.93 in 10.0 mi Calm Calm - N/A   Clear
9:53 PM 73.0 °F - 69.1 °F 87% 29.94 in 9.0 mi Calm Calm - N/A   Clear
10:53 PM 73.0 °F - 69.1 °F 87% 29.94 in 9.0 mi Calm Calm - N/A   Clear
11:53 PM 71.1 °F - 69.1 °F 93% 29.94 in 8.0 mi South 4.6 mph - N/A   Partly Cloudy